Time,TemperatureF,DewpointF,PressureIn,WindDirection,WindDirectionDegrees,WindSpeedMPH,WindSpeedGustMPH,Humidity,HourlyPrecipIn,Conditions,Clouds,dailyrainin,SoftwareType,DateUTC
2013-04-23 00:00:00,49.9,49.0,29.88,South,171,0.0,3.0,98,0.00,,,0.00,,2013-04-23 07:00:00,
2013-04-23 00:10:00,49.9,49.0,29.87,South,169,4.0,4.0,98,0.00,,,0.00,,2013-04-23 07:10:00,
2013-04-23 00:20:00,49.8,49.0,29.88,South,175,0.0,4.0,98,0.00,,,0.00,,2013-04-23 07:20:00,
2013-04-23 00:30:00,49.6,49.0,29.87,South,178,1.0,7.0,98,0.00,,,0.00,,2013-04-23 07:30:00,
2013-04-23 00:40:00,49.5,49.0,29.87,South,180,3.0,4.0,98,0.00,,,0.00,,2013-04-23 07:40:00,
2013-04-23 00:50:00,49.5,49.0,29.87,SSE,157,2.0,7.0,98,0.00,,,0.00,,2013-04-23 07:50:00,
2013-04-23 01:00:00,49.5,49.0,29.87,SSE,163,1.0,6.0,98,0.00,,,0.00,,2013-04-23 08:00:00,
2013-04-23 01:10:00,49.3,49.0,29.87,South,184,6.0,6.0,98,0.00,,,0.00,,2013-04-23 08:10:00,
2013-04-23 01:20:00,49.4,49.0,29.87,South,184,0.0,6.0,98,0.00,,,0.00,,2013-04-23 08:20:00,
2013-04-23 01:30:00,49.4,49.0,29.87,SSE,159,5.0,5.0,98,0.00,,,0.00,,2013-04-23 08:30:00,
2013-04-23 01:40:00,49.1,49.0,29.87,SE,146,4.0,6.0,98,0.00,,,0.00,,2013-04-23 08:40:00,
2013-04-23 01:50:00,49.2,49.0,29.86,SSE,166,0.0,3.0,98,0.00,,,0.00,,2013-04-23 08:50:00,
2013-04-23 02:00:00,49.3,49.0,29.86,South,175,3.0,3.0,98,0.00,,,0.00,,2013-04-23 09:00:00,
2013-04-23 02:10:00,49.3,49.0,29.86,South,174,1.0,3.0,98,0.00,,,0.00,,2013-04-23 09:10:00,
2013-04-23 02:20:00,49.4,49.0,29.86,SSE,159,0.0,6.0,98,0.00,,,0.00,,2013-04-23 09:20:00,
2013-04-23 02:30:00,49.4,49.0,29.86,South,181,1.0,3.0,98,0.00,,,0.00,,2013-04-23 09:30:00,
2013-04-23 02:40:00,49.5,49.0,29.85,South,173,2.0,5.0,99,0.00,,,0.00,,2013-04-23 09:40:00,
2013-04-23 02:50:00,49.4,49.0,29.85,South,184,0.0,5.0,98,0.00,,,0.00,,2013-04-23 09:50:00,
2013-04-23 03:00:00,49.1,49.0,29.85,SSW,204,3.0,6.0,98,0.00,,,0.00,,2013-04-23 10:00:00,
2013-04-23 03:10:00,49.1,49.0,29.85,SSW,193,3.0,3.0,99,0.00,,,0.00,,2013-04-23 10:10:00,
2013-04-23 03:20:00,49.2,49.0,29.85,South,180,3.0,6.0,99,0.00,,,0.00,,2013-04-23 10:20:00,
2013-04-23 03:30:00,49.0,49.0,29.85,South,186,0.0,6.0,99,0.00,,,0.00,,2013-04-23 10:30:00,
2013-04-23 03:40:00,49.0,49.0,29.85,SSE,156,0.0,5.0,99,0.00,,,0.00,,2013-04-23 10:40:00,
2013-04-23 03:50:00,49.1,49.0,29.85,SSE,163,0.0,1.0,99,0.00,,,0.00,,2013-04-23 10:50:00,
2013-04-23 04:00:00,49.0,49.0,29.85,South,190,1.0,1.0,99,0.00,,,0.00,,2013-04-23 11:00:00,
2013-04-23 04:10:00,49.2,49.0,29.85,SSW,194,0.0,1.0,99,0.00,,,0.00,,2013-04-23 11:10:00,
2013-04-23 04:20:00,49.2,49.0,29.85,South,182,0.0,1.0,99,0.00,,,0.00,,2013-04-23 11:20:00,
2013-04-23 04:30:00,49.1,49.0,29.85,SSE,164,0.0,1.0,99,0.00,,,0.00,,2013-04-23 11:30:00,
2013-04-23 04:40:00,49.1,49.0,29.85,SE,145,0.0,1.0,99,0.00,,,0.00,,2013-04-23 11:40:00,
2013-04-23 04:50:00,49.1,49.0,29.85,SSE,164,1.0,1.0,99,0.00,,,0.00,,2013-04-23 11:50:00,
2013-04-23 05:00:00,49.1,49.0,29.85,South,173,0.0,1.0,99,0.00,,,0.00,,2013-04-23 12:00:00,
2013-04-23 05:10:00,49.2,49.0,29.86,SSE,167,0.0,1.0,99,0.00,,,0.00,,2013-04-23 12:10:00,
2013-04-23 05:20:00,49.1,49.0,29.86,SSE,166,0.0,1.0,99,0.00,,,0.00,,2013-04-23 12:20:00,
2013-04-23 05:30:00,49.3,49.0,29.86,South,184,0.0,1.0,99,0.00,,,0.00,,2013-04-23 12:30:00,
2013-04-23 05:40:00,49.4,49.0,29.87,SSW,213,0.0,1.0,99,0.00,,,0.00,,2013-04-23 12:40:00,
2013-04-23 05:50:00,49.3,49.0,29.87,SSW,195,1.0,1.0,99,0.00,,,0.00,,2013-04-23 12:50:00,
2013-04-23 06:00:00,49.2,49.0,29.88,SSE,166,1.0,1.0,99,0.00,,,0.00,,2013-04-23 13:00:00,
2013-04-23 06:10:00,48.9,49.0,29.88,SSE,157,0.0,1.0,99,0.00,,,0.00,,2013-04-23 13:10:00,
2013-04-23 06:20:00,49.2,49.0,29.88,SSE,161,1.0,1.0,99,0.00,,,0.00,,2013-04-23 13:20:00,
2013-04-23 06:30:00,49.2,49.0,29.89,SSE,157,1.0,1.0,99,0.00,,,0.00,,2013-04-23 13:30:00,
2013-04-23 06:40:00,49.4,49.0,29.89,SSE,161,0.0,1.0,99,0.00,,,0.00,,2013-04-23 13:40:00,
2013-04-23 06:50:00,49.1,49.0,29.90,SSE,161,0.0,1.0,99,0.00,,,0.00,,2013-04-23 13:50:00,
2013-04-23 07:00:00,49.1,49.0,29.90,SSE,150,0.0,1.0,99,0.00,,,0.00,,2013-04-23 14:00:00,
2013-04-23 07:10:00,49.1,49.0,29.90,SE,135,1.0,1.0,99,0.00,,,0.00,,2013-04-23 14:10:00,
2013-04-23 07:20:00,49.2,49.0,29.90,SSE,148,0.0,1.0,99,0.00,,,0.00,,2013-04-23 14:20:00,
2013-04-23 07:30:00,49.3,49.0,29.91,SSE,161,0.0,1.0,99,0.00,,,0.00,,2013-04-23 14:30:00,
2013-04-23 07:40:00,49.4,49.0,29.91,SSE,153,0.0,1.0,99,0.00,,,0.00,,2013-04-23 14:40:00,
2013-04-23 07:50:00,49.3,49.0,29.92,SE,133,1.0,1.0,99,0.00,,,0.00,,2013-04-23 14:50:00,
2013-04-23 08:00:00,49.5,49.0,29.92,ESE,108,1.0,1.0,99,0.00,,,0.00,,2013-04-23 15:00:00,
2013-04-23 08:10:00,49.6,49.0,29.92,East,90,0.0,1.0,99,0.00,,,0.00,,2013-04-23 15:10:00,
2013-04-23 08:20:00,49.7,49.0,29.92,East,81,0.0,1.0,99,0.00,,,0.00,,2013-04-23 15:20:00,
2013-04-23 08:30:00,49.7,49.0,29.93,East,82,1.0,1.0,99,0.00,,,0.00,,2013-04-23 15:30:00,
2013-04-23 08:40:00,49.9,50.0,29.93,East,83,0.0,1.0,99,0.00,,,0.00,,2013-04-23 15:40:00,
2013-04-23 08:50:00,50.1,50.0,29.93,East,83,0.0,1.0,99,0.00,,,0.00,,2013-04-23 15:50:00,
2013-04-23 09:00:00,50.3,50.0,29.93,East,83,0.0,1.0,99,0.00,,,0.00,,2013-04-23 16:00:00,
2013-04-23 09:10:00,50.6,50.0,29.93,East,83,1.0,1.0,99,0.00,,,0.00,,2013-04-23 16:10:00,
2013-04-23 09:20:00,50.8,51.0,29.93,East,84,0.0,1.0,99,0.00,,,0.00,,2013-04-23 16:20:00,
2013-04-23 09:30:00,51.1,51.0,29.93,East,84,0.0,1.0,99,0.00,,,0.00,,2013-04-23 16:30:00,
2013-04-23 09:40:00,51.4,51.0,29.94,East,82,1.0,1.0,99,0.00,,,0.00,,2013-04-23 16:40:00,
2013-04-23 09:50:00,51.5,51.0,29.93,SE,124,0.0,1.0,99,0.00,,,0.00,,2013-04-23 16:50:00,
2013-04-23 10:00:00,51.5,51.0,29.94,SSE,157,0.0,1.0,99,0.00,,,0.00,,2013-04-23 17:00:00,
2013-04-23 10:10:00,51.7,51.0,29.94,South,169,0.0,1.0,99,0.00,,,0.00,,2013-04-23 17:10:00,
2013-04-23 10:20:00,52.4,52.0,29.93,East,96,1.0,1.0,99,0.00,,,0.00,,2013-04-23 17:20:00,
2013-04-23 10:30:00,52.4,52.0,29.93,SE,138,1.0,1.0,99,0.00,,,0.00,,2013-04-23 17:30:00,
2013-04-23 10:40:00,52.6,52.0,29.94,SE,146,0.0,1.0,99,0.00,,,0.00,,2013-04-23 17:40:00,
2013-04-23 10:50:00,53.1,53.0,29.94,East,101,0.0,1.0,99,0.00,,,0.00,,2013-04-23 17:50:00,
2013-04-23 11:00:00,52.9,53.0,29.94,SSW,198,0.0,1.0,99,0.00,,,0.00,,2013-04-23 18:00:00,
2013-04-23 11:10:00,53.1,53.0,29.94,South,190,0.0,0.0,99,0.00,,,0.00,,2013-04-23 18:10:00,
2013-04-23 11:20:00,53.9,54.0,29.94,SSW,200,0.0,1.0,99,0.00,,,0.00,,2013-04-23 18:20:00,
2013-04-23 11:30:00,54.5,54.0,29.94,South,182,0.0,1.0,98,0.00,,,0.00,,2013-04-23 18:30:00,
2013-04-23 11:40:00,55.2,54.0,29.93,SSW,211,0.0,1.0,97,0.00,,,0.00,,2013-04-23 18:40:00,
2013-04-23 11:50:00,56.0,55.0,29.93,SSW,213,0.0,1.0,95,0.00,,,0.00,,2013-04-23 18:50:00,
2013-04-23 12:00:00,57.1,55.0,29.93,WSW,251,0.0,1.0,92,0.00,,,0.00,,2013-04-23 19:00:00,
2013-04-23 12:10:00,57.6,54.0,29.92,SW,225,0.0,0.0,87,0.00,,,0.00,,2013-04-23 19:10:00,
2013-04-23 12:20:00,58.1,53.0,29.92,SSW,209,0.0,0.0,84,0.00,,,0.00,,2013-04-23 19:20:00,
2013-04-23 12:30:00,58.0,53.0,29.91,SW,232,1.0,1.0,83,0.00,,,0.00,,2013-04-23 19:30:00,
2013-04-23 12:40:00,58.0,53.0,29.91,WSW,251,0.0,0.0,83,0.00,,,0.00,,2013-04-23 19:40:00,
2013-04-23 12:50:00,58.2,53.0,29.91,SW,233,0.0,0.0,82,0.00,,,0.00,,2013-04-23 19:50:00,
2013-04-23 13:00:00,58.4,53.0,29.90,SW,232,0.0,0.0,81,0.00,,,0.00,,2013-04-23 20:00:00,
2013-04-23 13:10:00,57.7,52.0,29.90,SW,225,0.0,0.0,82,0.00,,,0.00,,2013-04-23 20:10:00,
2013-04-23 13:20:00,57.9,52.0,29.90,SW,220,0.0,0.0,82,0.00,,,0.00,,2013-04-23 20:20:00,
2013-04-23 13:30:00,57.5,52.0,29.90,SW,221,0.0,0.0,83,0.00,,,0.00,,2013-04-23 20:30:00,
2013-04-23 13:40:00,58.4,53.0,29.90,SW,234,0.0,0.0,81,0.00,,,0.00,,2013-04-23 20:40:00,
2013-04-23 13:50:00,59.3,53.0,29.89,West,261,0.0,0.0,81,0.00,,,0.00,,2013-04-23 20:50:00,
2013-04-23 14:00:00,59.0,53.0,29.90,WSW,242,0.0,0.0,81,0.00,,,0.00,,2013-04-23 21:00:00,
2013-04-23 14:10:00,59.0,53.0,29.90,WSW,254,0.0,0.0,81,0.00,,,0.00,,2013-04-23 21:10:00,
2013-04-23 14:20:00,58.3,53.0,29.89,WSW,248,0.0,0.0,81,0.00,,,0.00,,2013-04-23 21:20:00,
2013-04-23 14:30:00,59.0,53.0,29.89,West,274,0.0,0.0,80,0.00,,,0.00,,2013-04-23 21:30:00,
2013-04-23 14:40:00,57.8,52.0,29.89,WSW,257,13.0,14.0,81,0.00,,,0.00,,2013-04-23 21:40:00,
2013-04-23 14:50:00,58.1,53.0,29.89,WSW,251,12.0,14.0,82,0.00,,,0.00,,2013-04-23 21:50:00,
2013-04-23 15:00:00,57.4,52.0,29.89,WSW,252,12.0,15.0,82,0.00,,,0.00,,2013-04-23 22:00:00,
2013-04-23 15:10:00,57.3,53.0,29.88,WSW,244,9.0,14.0,84,0.00,,,0.00,,2013-04-23 22:10:00,
2013-04-23 15:20:00,57.6,52.0,29.88,West,263,10.0,13.0,82,0.00,,,0.00,,2013-04-23 22:20:00,
2013-04-23 15:30:00,57.9,52.0,29.88,WSW,256,11.0,14.0,81,0.00,,,0.00,,2013-04-23 22:30:00,
2013-04-23 15:40:00,57.7,52.0,29.88,WSW,258,10.0,15.0,82,0.00,,,0.00,,2013-04-23 22:40:00,
2013-04-23 15:50:00,58.2,53.0,29.88,WNW,296,7.0,13.0,83,0.00,,,0.00,,2013-04-23 22:50:00,
2013-04-23 16:00:00,57.8,52.0,29.88,West,275,6.0,12.0,81,0.00,,,0.00,,2013-04-23 23:00:00,
2013-04-23 16:10:00,58.3,53.0,29.88,West,278,10.0,11.0,81,0.00,,,0.00,,2013-04-23 23:10:00,
2013-04-23 16:20:00,57.9,52.0,29.87,West,270,7.0,11.0,82,0.00,,,0.00,,2013-04-23 23:20:00,
2013-04-23 16:30:00,58.8,53.0,29.87,WNW,286,9.0,11.0,80,0.00,,,0.00,,2013-04-23 23:30:00,
2013-04-23 16:40:00,57.7,52.0,29.87,WSW,255,11.0,16.0,82,0.00,,,0.00,,2013-04-23 23:40:00,
2013-04-23 16:50:00,57.0,52.0,29.87,West,271,0.0,16.0,83,0.00,,,0.00,,2013-04-23 23:50:00,
2013-04-23 17:00:00,56.3,52.0,29.87,West,266,0.0,0.0,85,0.00,,,0.00,,2013-04-24 00:00:00,
2013-04-23 17:10:00,55.8,52.0,29.87,West,261,0.0,0.0,86,0.00,,,0.00,,2013-04-24 00:10:00,
2013-04-23 17:20:00,55.6,52.0,29.86,WSW,254,0.0,0.0,87,0.00,,,0.00,,2013-04-24 00:20:00,
2013-04-23 17:30:00,56.0,52.0,29.87,West,268,0.0,0.0,86,0.00,,,0.00,,2013-04-24 00:30:00,
2013-04-23 17:40:00,56.0,52.0,29.87,West,268,0.0,0.0,86,0.00,,,0.00,,2013-04-24 00:40:00,
2013-04-23 17:50:00,55.3,52.0,29.87,West,268,0.0,0.0,87,0.00,,,0.00,,2013-04-24 00:50:00,
2013-04-23 18:00:00,55.3,52.0,29.88,West,268,0.0,0.0,88,0.00,,,0.00,,2013-04-24 01:00:00,
2013-04-23 18:10:00,54.6,51.0,29.88,WSW,257,0.0,0.0,88,0.00,,,0.00,,2013-04-24 01:10:00,
2013-04-23 18:20:00,54.1,51.0,29.88,West,262,0.0,0.0,89,0.00,,,0.00,,2013-04-24 01:20:00,
2013-04-23 18:30:00,53.7,51.0,29.87,WSW,257,0.0,0.0,90,0.00,,,0.00,,2013-04-24 01:30:00,
2013-04-23 18:40:00,53.5,51.0,29.88,West,281,0.0,1.0,91,0.00,,,0.00,,2013-04-24 01:40:00,
2013-04-23 18:50:00,53.3,51.0,29.88,NW,309,0.0,0.0,91,0.00,,,0.00,,2013-04-24 01:50:00,
2013-04-23 19:00:00,53.1,51.0,29.87,West,274,0.0,1.0,92,0.00,,,0.00,,2013-04-24 02:00:00,
2013-04-23 19:12:00,52.9,51.0,29.87,West,275,0.0,0.0,92,0.00,,,0.00,,2013-04-24 02:12:00,
2013-04-23 19:20:00,52.9,51.0,29.87,West,281,0.0,1.0,92,0.00,,,0.00,,2013-04-24 02:20:00,
2013-04-23 19:32:00,52.8,51.0,29.88,NW,320,0.0,1.0,92,0.00,,,0.00,,2013-04-24 02:32:00,
2013-04-23 19:42:00,52.6,51.0,29.87,NW,319,3.0,5.0,93,0.00,,,0.00,,2013-04-24 02:42:00,
2013-04-23 19:50:00,52.5,51.0,29.88,NW,321,6.0,7.0,93,0.00,,,0.00,,2013-04-24 02:50:00,
2013-04-23 20:02:00,52.2,50.0,29.88,NW,308,5.0,6.0,93,0.00,,,0.00,,2013-04-24 03:02:00,
2013-04-23 20:12:00,52.1,50.0,29.88,NNW,342,2.0,8.0,93,0.00,,,0.00,,2013-04-24 03:12:00,
2013-04-23 20:21:00,52.1,50.0,29.88,NW,321,7.0,8.0,94,0.00,,,0.00,,2013-04-24 03:21:00,
2013-04-23 20:30:00,52.0,50.0,29.88,NNW,338,2.0,7.0,94,0.00,,,0.00,,2013-04-24 03:30:00,
2013-04-23 20:40:00,51.9,50.0,29.88,WNW,297,2.0,6.0,94,0.00,,,0.00,,2013-04-24 03:40:00,
2013-04-23 20:51:00,51.9,50.0,29.88,NNW,348,6.0,7.0,94,0.00,,,0.00,,2013-04-24 03:51:00,
2013-04-23 21:00:00,51.8,50.0,29.89,NNW,338,3.0,5.0,94,0.00,,,0.00,,2013-04-24 04:00:00,
2013-04-23 21:10:00,51.6,50.0,29.89,NNW,336,4.0,6.0,94,0.00,,,0.00,,2013-04-24 04:10:00,
2013-04-23 21:20:00,51.3,50.0,29.89,NW,317,1.0,5.0,95,0.00,,,0.00,,2013-04-24 04:20:00,
2013-04-23 21:30:00,51.2,50.0,29.89,NW,315,3.0,7.0,95,0.00,,,0.00,,2013-04-24 04:30:00,
2013-04-23 21:40:00,51.1,50.0,29.89,NNW,341,4.0,6.0,95,0.00,,,0.00,,2013-04-24 04:40:00,
2013-04-23 21:50:00,51.0,50.0,29.89,NW,315,2.0,5.0,95,0.00,,,0.00,,2013-04-24 04:50:00,
2013-04-23 22:00:00,51.0,50.0,29.89,NW,315,2.0,4.0,96,0.00,,,0.00,,2013-04-24 05:00:00,
2013-04-23 22:10:00,50.9,50.0,29.89,NW,315,1.0,4.0,96,0.00,,,0.00,,2013-04-24 05:10:00,
2013-04-23 22:20:00,50.8,50.0,29.89,NW,315,2.0,4.0,96,0.00,,,0.00,,2013-04-24 05:20:00,
2013-04-23 22:30:00,50.8,50.0,29.88,NW,314,3.0,5.0,96,0.00,,,0.00,,2013-04-24 05:30:00,
2013-04-23 22:40:00,50.7,50.0,29.88,NW,315,1.0,5.0,96,0.00,,,0.00,,2013-04-24 05:40:00,
2013-04-23 22:50:00,50.6,50.0,29.88,NW,315,0.0,3.0,96,0.00,,,0.00,,2013-04-24 05:50:00,
2013-04-23 23:00:00,50.7,50.0,29.88,NW,315,1.0,4.0,96,0.00,,,0.00,,2013-04-24 06:00:00,
2013-04-23 23:10:00,50.6,50.0,29.88,NW,315,3.0,5.0,96,0.00,,,0.00,,2013-04-24 06:10:00,
2013-04-23 23:20:00,50.5,49.0,29.87,NW,315,0.0,2.0,96,0.00,,,0.00,,2013-04-24 06:20:00,
2013-04-23 23:30:00,50.6,50.0,29.87,NW,315,0.0,2.0,97,0.00,,,0.00,,2013-04-24 06:30:00,
2013-04-23 23:40:00,50.6,50.0,29.87,NW,315,3.0,5.0,97,0.00,,,0.00,,2013-04-24 06:40:00,
2013-04-23 23:50:00,50.4,49.0,29.87,NW,315,4.0,4.0,96,0.00,,,0.00,,2013-04-24 06:50:00,